1512903600.62,15935,2.81,71762.5,-12.29,-45.41,-45.41,0,*63
1512903601.86,15936,2.81,71762.0,-12.29,-44.99,-45.07,0,*66
1512903603.11,15937,2.81,71756.5,-12.27,-44.99,-45.21,0,*6D
1512903604.35,15938,2.81,71756.8,-12.23,-45.41,-45.53,0,*67
1512903605.61,15939,2.81,71766.5,-12.23,-45.95,-46.15,0,*6E
1512903606.9,15940,2.81,71782.3,-12.23,-45.81,-45.81,0,*6B
1512903608.13,15941,2.81,71768.8,-12.23,-45.33,-45.61,0,*6D
1512903609.37,15942,2.81,71752.5,-12.23,-45.61,-45.61,0,*69
1512903610.63,15943,2.88,71744.8,-12.23,-45.73,-45.61,0,*6B
1512903611.91,15944,2.81,71734.8,-12.23,-45.73,-45.81,0,*62
1512903613.19,15945,2.81,71724.5,-12.23,-45.81,-45.73,0,*63
1512903614.45,15946,2.81,71722.3,-12.23,-45.61,-45.73,0,*6E
1512903615.72,15947,2.81,71722.3,-12.23,-46.15,-46.21,0,*6B
1512903616.96,15948,2.88,71720.3,-12.23,-45.53,-45.61,0,*62
1512903618.21,15949,2.81,71726.0,-12.23,-45.53,-45.61,0,*63
1512903619.44,15950,2.81,71724.8,-12.23,-45.33,-45.41,0,*6F
1512903620.67,15951,2.81,71732.0,-12.23,-45.41,-45.53,0,*68
1512903621.91,15952,2.81,71734.3,-12.23,-45.41,-45.61,0,*6A
1512903623.19,15953,2.81,71740.3,-12.23,-45.73,-45.81,0,*64
1512903624.43,15954,2.81,71742.0,-12.23,-45.33,-45.61,0,*69
1512903625.69,15955,2.81,71748.3,-12.21,-45.07,-45.27,0,*6F
1512903626.96,15956,2.81,71756.0,-12.19,-45.07,-45.33,0,*62
1512903628.22,15957,2.81,71758.8,-12.19,-45.07,-45.13,0,*61
1512903629.47,15958,2.88,71764.8,-12.17,-44.87,-45.07,0,*6C
1512903630.72,15959,2.81,71760.5,-12.19,-44.87,-44.87,0,*6A
1512903631.93,15960,2.81,71764.8,-12.17,-44.61,-44.61,0,*6E
1512903633.16,15961,2.81,71764.8,-12.13,-44.53,-44.47,0,*6E
1512903634.4,15962,2.81,71766.5,-12.13,-44.53,-44.67,0,*6F
1512903635.66,15963,2.81,71770.3,-12.13,-44.67,-44.73,0,*6C
1512903636.94,15964,2.81,71768.0,-12.11,-44.79,-44.93,0,*68
1512903638.18,15965,2.81,71756.8,-12.11,-44.79,-44.99,0,*63
1512903639.45,15966,2.81,71752.0,-12.09,-44.73,-44.73,0,*67
1512903640.65,15967,2.81,71754.3,-12.09,-44.53,-44.53,0,*66
1512903641.91,15968,2.81,71756.8,-12.07,-44.41,-44.47,0,*61
1512903643.2,15969,2.81,71758.8,-12.07,-44.93,-45.07,0,*6A
1512903644.44,15970,2.81,71754.3,-12.05,-45.07,-45.13,0,*69
1512903645.68,15971,2.81,71752.8,-12.05,-45.13,-45.27,0,*6A
1512903646.9,15972,2.81,71748.0,-12.05,-45.53,-45.53,0,*6E
1512903648.17,15973,2.88,71752.5,-12.01,-44.67,-44.79,0,*64
1512903649.41,15974,2.81,71752.5,-12.01,-44.61,-44.79,0,*65
1512903650.65,15975,2.81,71752.5,-12.01,-44.53,-44.53,0,*6D
1512903651.91,15976,2.81,71754.5,-11.99,-44.13,-44.01,0,*6F
1512903653.13,15977,2.81,71748.5,-11.99,-44.07,-44.07,0,*6D
1512903654.34,15978,2.81,71744.8,-11.99,-43.87,-44.07,0,*6D
1512903655.58,15979,2.81,71748.8,-11.97,-44.07,-44.07,0,*6D
1512903656.85,15980,2.81,71750.8,-11.97,-44.13,-44.07,0,*6E
1512903658.12,15981,2.81,71752.0,-11.95,-44.01,-44.01,0,*68
1512903659.36,15982,2.81,71758.8,-11.91,-44.01,-44.07,0,*69
1512903660.61,15983,2.88,71756.0,-11.91,-44.07,-44.21,0,*6A
1512903661.85,15984,2.81,71752.8,-11.89,-43.95,-43.95,0,*60
1512903663.12,15985,2.81,71754.3,-11.87,-44.13,-44.13,0,*6F
1512903664.36,15986,2.81,71758.0,-11.87,-44.47,-44.61,0,*68
1512903665.59,15987,2.81,71756.3,-11.87,-44.87,-44.99,0,*62
1512903666.84,15988,2.81,71756.0,-11.87,-44.67,-44.79,0,*6D
1512903668.07,15989,2.81,71756.0,-11.87,-44.87,-44.99,0,*6C
1512903669.34,15990,2.81,71762.0,-11.85,-44.73,-44.79,0,*63
1512903670.56,15991,2.81,71758.3,-11.83,-44.99,-44.99,0,*6E
1512903671.8,15992,2.81,71754.0,-11.85,-45.61,-45.67,0,*6D
1512903673.04,15993,2.81,71756.5,-11.83,-45.81,-45.87,0,*6A
1512903674.28,15994,2.81,71760.0,-11.85,-46.01,-46.21,0,*6F
1512903675.57,15995,2.81,71752.5,-11.85,-46.61,-46.61,0,*6C
1512903676.81,15996,2.88,71762.8,-11.85,-45.87,-45.87,0,*6F
1512903678.07,15997,2.88,71766.3,-11.85,-44.33,-44.53,0,*68
1512903679.37,15998,2.81,71760.8,-11.85,-44.73,-44.73,0,*61
1512903680.62,15999,2.81,71758.5,-11.85,-45.21,-45.33,0,*63
1512903681.84,16000,2.81,71756.0,-11.83,-45.41,-45.53,0,*6F
1512903683.08,16001,2.88,71766.8,-11.85,-45.67,-45.87,0,*65
1512903684.29,16002,2.81,71768.3,-11.83,-45.87,-46.21,0,*61
1512903685.52,16003,2.81,71770.3,-11.83,-45.53,-45.61,0,*6E
1512903686.79,16004,2.81,71772.8,-11.85,-44.53,-44.73,0,*6C
1512903688.0,16005,2.88,71774.5,-11.83,-44.41,-44.61,0,*6B
1512903689.24,16006,2.88,71774.5,-11.83,-43.87,-44.13,0,*60
1512903690.49,16007,2.81,71764.3,-11.81,-43.61,-43.87,0,*61
1512903691.71,16008,2.81,71764.5,-11.79,-43.41,-43.61,0,*63
1512903692.97,16009,2.81,71760.0,-11.75,-43.21,-43.55,0,*6F
1512903694.26,16010,2.88,71758.0,-11.73,-43.81,-44.01,0,*6D
1512903695.55,16011,2.88,71762.3,-11.73,-44.01,-44.21,0,*61
1512903696.78,16012,2.81,71756.8,-11.73,-44.41,-44.79,0,*6B
1512903698.04,16013,2.88,71756.0,-11.71,-44.99,-45.21,0,*61
1512903699.3,16014,2.81,71758.0,-11.71,-45.33,-45.47,0,*67
1512903700.54,16015,2.81,71758.5,-11.71,-45.41,-45.67,0,*61
1512903701.76,16016,2.88,71760.5,-11.69,-46.01,-46.21,0,*6D
1512903703.04,16017,2.81,71758.3,-11.71,-45.47,-45.61,0,*63
1512903704.29,16018,2.81,71750.5,-11.71,-45.67,-46.01,0,*6B
1512903705.59,16019,2.81,71746.5,-11.71,-46.07,-46.27,0,*6B
1512903706.83,16020,2.81,71754.8,-11.71,-45.33,-45.41,0,*66
1512903708.1,16021,2.81,71758.3,-11.71,-45.47,-45.67,0,*60
1512903709.31,16022,2.81,71758.8,-11.69,-45.41,-45.87,0,*62
1512903710.57,16023,2.81,71760.0,-11.71,-45.33,-45.47,0,*63
1512903711.85,16024,2.81,71766.0,-11.71,-44.93,-45.33,0,*6C
1512903713.12,16025,2.81,71760.5,-11.71,-44.93,-45.13,0,*6F
1512903714.39,16026,2.81,71750.8,-11.71,-45.13,-45.47,0,*64
1512903715.64,16027,2.81,71746.8,-11.69,-44.93,-44.99,0,*67
1512903716.88,16028,2.88,71748.3,-11.69,-44.73,-44.79,0,*68
1512903718.12,16029,2.81,71744.5,-11.67,-44.07,-44.27,0,*6F
1512903719.36,16030,2.88,71758.8,-11.67,-44.07,-44.27,0,*67
1512903720.65,16031,2.81,71756.0,-11.67,-44.33,-44.67,0,*65
1512903721.89,16032,2.88,71762.8,-11.65,-44.27,-44.67,0,*61
1512903723.11,16033,2.81,71760.0,-11.61,-44.27,-44.61,0,*62
1512903724.33,16034,2.81,71760.3,-11.61,-44.79,-44.99,0,*69
1512903725.55,16035,2.81,71756.8,-11.61,-44.79,-44.87,0,*67
1512903726.83,16036,2.88,71760.5,-11.59,-45.27,-45.61,0,*6C
1512903728.09,16037,2.88,71766.8,-11.59,-44.73,-44.99,0,*6B
1512903729.34,16038,2.81,71766.5,-11.59,-44.99,-45.21,0,*62
1512903730.58,16039,2.88,71766.8,-11.59,-44.53,-44.61,0,*60
1512903731.79,16040,2.81,71760.0,-11.57,-44.41,-44.61,0,*63
1512903733.08,16041,2.81,71766.0,-11.55,-44.13,-44.33,0,*60
1512903734.34,16042,2.81,71760.8,-11.55,-44.27,-44.47,0,*67
1512903735.6,16043,2.81,71770.3,-11.55,-44.47,-44.53,0,*65
1512903736.88,16044,2.88,71768.0,-11.51,-44.47,-44.67,0,*61
1512903738.11,16045,2.81,71766.0,-11.49,-44.41,-44.67,0,*6F
1512903739.31,16046,2.81,71768.8,-11.49,-44.41,-44.61,0,*6A
1512903740.55,16047,2.81,71772.5,-11.49,-44.99,-45.07,0,*6F
1512903741.81,16048,2.81,71774.5,-11.47,-44.61,-44.67,0,*6E
1512903743.06,16049,2.81,71778.8,-11.47,-44.79,-44.87,0,*68
1512903744.33,16050,2.81,71776.8,-11.47,-44.99,-45.27,0,*65
1512903745.6,16051,2.81,71774.8,-11.47,-45.07,-45.33,0,*67
1512903746.87,16052,2.88,71766.5,-11.47,-45.27,-45.33,0,*66
1512903748.09,16053,2.81,71760.0,-11.45,-44.53,-44.79,0,*68
1512903749.36,16054,2.88,71768.5,-11.47,-44.87,-45.07,0,*6C
1512903750.58,16055,2.88,71760.8,-11.45,-44.79,-44.99,0,*68
1512903751.82,16056,2.81,71758.5,-11.45,-45.21,-45.47,0,*65
1512903753.06,16057,2.88,71750.8,-11.45,-45.21,-45.47,0,*64
1512903754.29,16058,2.81,71754.0,-11.45,-45.41,-45.47,0,*6D
1512903755.58,16059,2.88,71762.8,-11.43,-45.07,-45.07,0,*6C
1512903756.87,16060,2.88,71778.3,-11.43,-44.93,-45.07,0,*6A
1512903758.13,16061,2.88,71756.8,-11.43,-45.41,-45.81,0,*6B
1512903759.39,16062,2.88,71746.8,-11.43,-46.01,-46.27,0,*60
1512903760.64,16063,2.88,71736.3,-11.41,-46.15,-46.35,0,*65
1512903761.92,16064,2.81,71744.3,-11.43,-46.41,-46.69,0,*68
1512903763.18,16065,2.81,71748.3,-11.43,-46.49,-46.97,0,*60
1512903764.42,16066,2.81,71752.0,-11.45,-46.55,-46.89,0,*67
1512903765.67,16067,2.81,71760.8,-11.47,-46.35,-46.75,0,*61
1512903766.93,16068,2.81,71754.5,-11.45,-46.07,-46.41,0,*6A
1512903768.19,16069,2.81,71766.8,-11.45,-46.41,-46.89,0,*6D
1512903769.46,16070,2.81,71768.0,-11.47,-46.35,-46.61,0,*62
1512903770.75,16071,2.81,71770.8,-11.47,-46.27,-46.49,0,*6A
1512903772.03,16072,2.81,71766.8,-11.47,-46.27,-46.35,0,*62
1512903773.29,16073,2.81,71762.8,-11.47,-46.61,-46.97,0,*69
1512903774.56,16074,2.88,71762.5,-11.47,-46.61,-46.83,0,*6B
1512903775.8,16075,2.81,71762.3,-11.47,-46.83,-47.17,0,*6A
1512903777.05,16076,2.81,71766.0,-11.47,-46.55,-46.83,0,*6E
1512903778.29,16077,2.81,71756.5,-11.49,-46.35,-46.61,0,*6B
1512903779.5,16078,2.81,71760.5,-11.49,-46.55,-46.75,0,*67
1512903780.74,16079,2.81,71770.8,-11.49,-46.61,-46.83,0,*68
1512903782.03,16080,2.88,71768.3,-11.51,-46.41,-46.69,0,*61
1512903783.27,16081,2.88,71770.8,-11.49,-46.27,-46.35,0,*60
1512903784.54,16082,2.88,71768.8,-11.49,-46.07,-46.07,0,*60
1512903785.81,16083,2.81,71760.0,-11.51,-46.15,-46.21,0,*6F
1512903787.08,16084,2.81,71762.5,-11.49,-46.07,-46.15,0,*65
1512903788.35,16085,2.81,71756.0,-11.49,-46.07,-46.15,0,*64
1512903789.62,16086,2.88,71752.0,-11.51,-46.15,-46.35,0,*6F
1512903790.84,16087,2.81,71750.8,-11.49,-46.35,-46.75,0,*61
1512903792.1,16088,2.81,71746.8,-11.51,-46.21,-46.41,0,*65
1512903793.37,16089,2.81,71754.3,-11.49,-46.07,-46.07,0,*6B
1512903794.66,16090,2.88,71756.5,-11.47,-46.07,-46.15,0,*6E
1512903795.93,16091,2.81,71764.8,-11.49,-46.07,-46.07,0,*62
1512903797.17,16092,2.81,71762.5,-11.49,-45.67,-45.73,0,*64
1512903798.4,16093,2.81,71766.5,-11.49,-45.47,-45.67,0,*62
1512903799.65,16094,2.81,71768.5,-11.49,-45.95,-46.15,0,*6C
1512903800.89,16095,2.88,71776.5,-11.49,-45.95,-46.07,0,*6E
1512903802.13,16096,2.81,71774.5,-11.49,-46.15,-46.35,0,*67
1512903803.39,16097,2.81,71782.8,-11.49,-45.73,-46.07,0,*64
1512903804.66,16098,2.81,71780.3,-11.47,-45.53,-45.73,0,*67
1512903805.93,16099,2.81,71776.5,-11.47,-44.99,-45.27,0,*60
1512903807.19,16100,2.81,71760.5,-11.47,-45.87,-46.07,0,*6E
1512903808.46,16101,2.81,71756.8,-11.47,-45.95,-46.07,0,*6C
1512903809.67,16102,2.81,71754.0,-11.49,-45.87,-45.95,0,*6A
1512903810.94,16103,2.81,71750.0,-11.45,-46.07,-46.27,0,*66
1512903812.21,16104,2.81,71740.5,-11.47,-46.27,-46.75,0,*66
1512903813.49,16105,2.81,71740.0,-11.47,-46.61,-47.03,0,*65
1512903814.75,16106,2.81,71738.3,-11.47,-46.75,-47.03,0,*63
1512903815.99,16107,2.81,71732.3,-11.49,-46.55,-47.03,0,*6E
1512903817.22,16108,2.81,71734.0,-11.49,-46.75,-47.03,0,*63
1512903818.43,16109,2.88,71732.0,-11.49,-46.35,-46.75,0,*66
1512903819.65,16110,2.81,71728.8,-11.49,-46.35,-46.75,0,*6E
1512903820.88,16111,2.81,71728.3,-11.49,-45.73,-45.87,0,*60
1512903822.12,16112,2.88,71732.8,-11.49,-45.47,-45.67,0,*6A
1512903823.33,16113,2.81,71734.8,-11.49,-45.53,-45.67,0,*6E
1512903824.56,16114,2.81,71734.8,-11.49,-45.73,-45.87,0,*65
1512903825.78,16115,2.88,71740.8,-11.49,-45.53,-45.67,0,*68
1512903826.99,16116,2.81,71736.5,-11.49,-45.33,-45.53,0,*6A
1512903828.23,16117,2.81,71732.5,-11.47,-44.87,-45.13,0,*6F
1512903829.5,16118,2.81,71734.5,-11.47,-44.99,-45.27,0,*68
1512903830.73,16119,2.81,71728.8,-11.45,-45.47,-45.67,0,*6D
1512903831.94,16120,2.88,71736.3,-11.45,-45.41,-45.67,0,*61
1512903833.21,16121,2.81,71738.3,-11.47,-45.95,-46.15,0,*6D
1512903834.44,16122,2.88,71732.3,-11.47,-45.33,-45.67,0,*64
1512903835.69,16123,2.81,71714.3,-11.45,-45.27,-45.61,0,*64
1512903836.9,16124,2.81,71704.3,-11.45,-45.61,-45.67,0,*67
1512903838.14,16125,2.81,71712.8,-11.47,-45.53,-45.67,0,*65
1512903839.41,16126,2.81,71726.5,-11.45,-46.07,-46.07,0,*63
1512903840.68,16127,2.81,71730.5,-11.45,-45.47,-46.07,0,*65
1512903841.92,16128,2.81,71724.0,-11.45,-46.01,-46.41,0,*69
1512903843.18,16129,2.81,71722.8,-11.47,-45.33,-45.73,0,*6A
1512903844.39,16130,2.81,71730.8,-11.45,-44.99,-45.33,0,*65
1512903845.62,16131,2.81,71728.5,-11.45,-46.01,-46.01,0,*65
1512903846.89,16132,2.88,71738.8,-11.45,-45.07,-45.81,0,*68
1512903848.15,16133,2.81,71734.0,-11.47,-45.95,-46.49,0,*67
1512903849.43,16134,2.88,71724.3,-11.47,-46.27,-46.35,0,*61
1512903850.67,16135,2.81,71730.3,-11.47,-45.95,-45.95,0,*63
1512903851.91,16136,2.81,71738.5,-11.47,-45.13,-45.87,0,*6D
1512903853.19,16137,2.81,71738.3,-11.47,-45.73,-46.15,0,*62
1512903854.47,16138,2.88,71734.0,-11.49,-46.27,-46.49,0,*68
1512903855.74,16139,2.81,71738.3,-11.49,-46.27,-46.49,0,*69
1512903857.0,16140,2.81,71746.5,-11.51,-46.21,-46.69,0,*6A
1512903858.26,16141,2.88,71746.0,-11.49,-46.27,-46.61,0,*6C
1512903859.51,16142,2.81,71732.8,-11.49,-45.95,-46.07,0,*65
1512903860.78,16143,2.88,71742.5,-11.49,-46.27,-46.49,0,*64
1512903862.08,16144,2.81,71744.3,-11.47,-46.15,-46.49,0,*6C
1512903863.28,16145,2.81,71748.8,-11.49,-45.33,-45.67,0,*6B
1512903864.51,16146,2.81,71744.5,-11.49,-45.73,-45.87,0,*62
1512903865.79,16147,2.81,71752.0,-11.47,-45.27,-45.53,0,*65
1512903867.03,16148,2.88,71750.3,-11.47,-44.99,-45.13,0,*6A
1512903868.3,16149,2.88,71744.0,-11.47,-45.53,-45.73,0,*6A
1512903869.52,16150,2.88,71742.5,-11.45,-44.79,-44.79,0,*62
1512903870.76,16151,2.81,71734.0,-11.45,-44.99,-45.27,0,*67
1512903872.0,16152,2.81,71736.8,-11.45,-44.99,-45.07,0,*66
1512903873.27,16153,2.88,71742.0,-11.43,-45.27,-45.53,0,*64
1512903874.54,16154,2.81,71742.3,-11.43,-46.21,-46.07,0,*64
1512903875.83,16155,2.81,71742.8,-11.43,-46.27,-46.41,0,*61
1512903877.06,16156,2.81,71734.0,-11.43,-46.75,-46.97,0,*6E
1512903878.3,16157,2.81,71742.0,-11.45,-46.89,-47.09,0,*6C
1512903879.54,16158,2.81,71752.3,-11.45,-47.09,-47.37,0,*67
1512903880.82,16159,2.88,71758.8,-11.47,-46.27,-46.83,0,*67
1512903882.11,16160,2.81,71776.8,-11.47,-46.07,-46.07,0,*63
1512903883.33,16161,2.88,71786.3,-11.45,-45.61,-45.87,0,*68
1512903884.63,16162,2.81,71770.0,-11.47,-46.15,-46.15,0,*61
1512903885.93,16163,2.81,71754.3,-11.47,-46.27,-46.27,0,*60
1512903887.22,16164,2.81,71740.8,-11.47,-46.49,-46.61,0,*6D
1512903888.5,16165,2.81,71734.8,-11.47,-46.61,-47.03,0,*63
1512903889.77,16166,2.81,71734.3,-11.47,-46.97,-47.23,0,*6B
1512903891.01,16167,2.81,71722.8,-11.47,-46.83,-47.17,0,*68
1512903892.25,16168,2.81,71718.5,-11.47,-46.83,-47.17,0,*67
1512903893.51,16169,2.81,71702.0,-11.47,-46.75,-47.03,0,*6A
1512903894.72,16170,2.81,71688.0,-11.49,-46.83,-47.17,0,*60
1512903896.01,16171,2.88,71674.8,-11.51,-46.41,-46.41,0,*64
1512903897.26,16172,2.81,71684.0,-11.49,-45.73,-45.47,0,*69
1512903898.51,16173,2.81,71690.5,-11.49,-44.87,-45.07,0,*66
1512903899.74,16174,2.81,71700.8,-11.51,-45.95,-46.21,0,*6D
1512903900.98,16175,2.81,71696.8,-11.49,-45.07,-44.99,0,*6F
1512903902.2,16176,2.88,71712.5,-11.49,-44.79,-44.07,0,*63
1512903903.41,16177,2.81,71726.0,-11.49,-44.41,-45.13,0,*6D
1512903904.65,16178,2.81,71718.8,-11.51,-45.53,-46.55,0,*68
1512903905.93,16179,2.88,71720.3,-11.51,-45.73,-45.81,0,*61
1512903907.15,16180,2.81,71722.0,-11.49,-44.87,-44.99,0,*6C
1512903908.42,16181,2.81,71736.3,-11.51,-45.61,-45.81,0,*65
1512903909.65,16182,2.81,71742.8,-11.51,-45.33,-45.61,0,*6F
1512903910.92,16183,2.81,71742.8,-11.51,-45.13,-44.93,0,*60
1512903912.16,16184,2.81,71754.5,-11.49,-45.07,-45.33,0,*60
1512903913.42,16185,2.81,71758.3,-11.51,-45.07,-45.33,0,*68
1512903914.64,16186,2.88,71760.8,-11.49,-44.87,-45.13,0,*69
1512903915.9,16187,2.81,71734.8,-11.47,-44.67,-44.79,0,*65
1512903917.14,16188,2.81,71738.3,-11.47,-44.41,-44.79,0,*6E
1512903918.4,16189,2.88,71748.3,-11.47,-44.61,-44.67,0,*62
1512903919.64,16190,2.81,71752.3,-11.45,-44.21,-44.41,0,*68
1512903920.9,16191,2.81,71752.0,-11.47,-44.47,-44.79,0,*60
1512903922.12,16192,2.81,71758.5,-11.45,-43.75,-43.95,0,*62
1512903923.38,16193,2.81,71756.5,-11.45,-43.81,-44.01,0,*62
1512903924.64,16194,2.81,71758.3,-11.43,-44.33,-44.41,0,*69
1512903925.87,16195,2.81,71758.0,-11.43,-44.61,-44.53,0,*6C
1512903927.08,16196,2.81,71758.0,-11.41,-44.53,-44.53,0,*6C
1512903928.31,16197,2.81,71766.3,-11.41,-44.47,-44.53,0,*68
1512903929.53,16198,2.81,71760.3,-11.39,-44.27,-44.53,0,*6E
1512903930.81,16199,2.81,71764.8,-11.37,-44.47,-44.47,0,*62
1512903932.05,16200,2.81,71760.8,-11.37,-44.41,-44.61,0,*63
1512903933.29,16201,2.81,71756.5,-11.37,-44.61,-44.61,0,*60
1512903934.55,16202,2.88,71760.3,-11.37,-44.41,-44.47,0,*65
1512903935.8,16203,2.81,71760.0,-11.35,-44.21,-44.41,0,*66
1512903937.01,16204,2.88,71762.5,-11.35,-44.53,-44.79,0,*6F
1512903938.28,16205,2.88,71756.8,-11.31,-44.21,-44.33,0,*61
1512903939.52,16206,2.81,71756.5,-11.33,-44.53,-44.61,0,*62
1512903940.77,16207,2.81,71760.3,-11.31,-44.21,-44.41,0,*66
1512903942.04,16208,2.81,71756.0,-11.31,-45.07,-45.27,0,*6D
1512903943.28,16209,2.81,71754.0,-11.27,-44.73,-45.13,0,*6E
1512903944.56,16210,2.88,71752.8,-11.27,-44.67,-44.93,0,*6A
1512903945.82,16211,2.81,71758.5,-11.27,-44.33,-44.47,0,*63
1512903947.08,16212,2.81,71762.5,-11.25,-44.53,-44.67,0,*66
1512903948.3,16213,2.81,71762.0,-11.23,-44.61,-44.87,0,*6E
1512903949.52,16214,2.88,71764.8,-11.23,-44.87,-45.13,0,*6D
1512903950.74,16215,2.81,71760.8,-11.23,-45.53,-45.87,0,*69
1512903951.98,16216,2.81,71766.8,-11.23,-44.93,-45.13,0,*6A
1512903953.26,16217,2.88,71770.3,-11.23,-44.73,-44.93,0,*6C
1512903954.53,16218,2.81,71764.5,-11.21,-44.87,-45.07,0,*66
1512903955.77,16219,2.88,71768.3,-11.19,-44.73,-45.13,0,*62
1512903957.04,16220,2.81,71760.5,-11.19,-45.27,-45.47,0,*69
1512903958.31,16221,2.81,71766.8,-11.19,-45.07,-45.27,0,*6C
1512903959.53,16222,2.88,71768.0,-11.19,-45.33,-45.53,0,*6B
1512903960.74,16223,2.88,71764.5,-11.19,-45.13,-45.33,0,*6E
1512903961.98,16224,2.88,71768.0,-11.21,-45.87,-45.87,0,*60
1512903963.22,16225,2.81,71768.0,-11.19,-45.47,-45.53,0,*6F
1512903964.44,16226,2.81,71770.0,-11.19,-45.53,-45.67,0,*6E
1512903965.66,16227,2.88,71772.3,-11.19,-45.67,-45.87,0,*66
1512903966.9,16228,2.88,71770.0,-11.19,-46.07,-46.35,0,*66
1512903968.14,16229,2.81,71768.8,-11.17,-45.67,-45.87,0,*66
1512903969.4,16230,2.88,71770.0,-11.17,-45.67,-45.81,0,*68
1512903970.67,16231,2.81,71770.3,-11.17,-45.87,-46.15,0,*69
1512903971.93,16232,2.88,71774.0,-11.17,-45.67,-45.81,0,*6A
1512903973.17,16233,2.88,71776.5,-11.19,-45.73,-45.95,0,*65
1512903974.43,16234,2.88,71772.5,-11.19,-45.47,-45.47,0,*6A
1512903975.65,16235,2.81,71766.0,-11.19,-45.87,-46.21,0,*64
1512903976.88,16236,2.81,71770.5,-11.17,-45.87,-46.35,0,*6C
1512903978.15,16237,2.81,71770.8,-11.17,-45.67,-45.81,0,*6F
1512903979.42,16238,2.81,71774.0,-11.17,-45.07,-45.21,0,*6C
1512903980.63,16239,2.88,71778.0,-11.15,-45.33,-45.61,0,*6C
1512903981.9,16240,2.88,71772.5,-11.17,-45.81,-46.01,0,*6C
1512903983.16,16241,2.81,71772.8,-11.17,-45.67,-45.81,0,*6E
1512903984.38,16242,2.81,71774.3,-11.15,-45.21,-45.33,0,*64
1512903985.6,16243,2.88,71778.5,-11.15,-44.99,-45.21,0,*64
1512903986.82,16244,2.81,71778.3,-11.15,-45.21,-45.21,0,*61
1512903988.06,16245,2.88,71774.0,-11.15,-45.61,-45.81,0,*6E
1512903989.29,16246,2.88,71772.0,-11.15,-45.81,-46.21,0,*6A
1512903990.53,16247,2.81,71770.8,-11.15,-45.61,-45.73,0,*61
1512903991.77,16248,2.81,71776.5,-11.13,-45.13,-45.33,0,*69
1512903993.03,16249,2.88,71772.5,-11.13,-45.81,-46.21,0,*63
1512903994.32,16250,2.88,71772.8,-11.13,-46.07,-46.27,0,*60
1512903995.61,16251,2.81,71768.0,-11.13,-45.73,-45.81,0,*6E
1512903996.88,16252,2.88,71770.3,-11.13,-46.07,-46.21,0,*64
1512903998.17,16253,2.88,71762.5,-11.13,-46.27,-46.49,0,*69
1512903999.47,16254,2.81,71756.3,-11.13,-46.07,-46.41,0,*64
1512904000.73,16255,2.81,71756.0,-11.13,-45.81,-45.95,0,*62
1512904002.01,16256,2.88,71762.5,-11.13,-45.81,-46.07,0,*69
1512904003.3,16257,2.81,71756.5,-11.13,-46.41,-46.69,0,*6F
1512904004.57,16258,2.81,71758.8,-11.13,-45.95,-46.07,0,*62
1512904005.83,16259,2.88,71758.3,-11.13,-45.95,-46.27,0,*61
1512904007.1,16260,2.81,71758.5,-11.13,-46.07,-46.21,0,*65
1512904008.39,16261,2.81,71756.5,-11.13,-46.41,-46.49,0,*68
1512904009.69,16262,2.81,71760.8,-11.13,-46.07,-46.49,0,*69
1512904010.98,16263,2.88,71760.8,-11.13,-46.07,-46.49,0,*68
1512904012.28,16264,2.88,71756.0,-11.13,-46.27,-46.49,0,*6D
1512904013.57,16265,2.81,71754.3,-11.13,-46.49,-46.61,0,*6E
1512904014.86,16266,2.81,71752.3,-11.13,-46.27,-46.61,0,*65
1512904016.12,16267,2.81,71758.3,-11.13,-46.21,-46.41,0,*60
1512904017.42,16268,2.81,71754.8,-11.13,-46.27,-46.49,0,*61
1512904018.66,16269,2.88,71752.5,-11.13,-45.95,-46.21,0,*64
1512904019.95,16270,2.88,71752.5,-11.13,-46.49,-46.69,0,*62
1512904021.22,16271,2.88,71746.8,-11.15,-46.69,-46.89,0,*69
1512904022.46,16272,2.81,71746.8,-11.15,-47.03,-47.31,0,*65
1512904023.69,16273,2.88,71736.3,-11.15,-47.23,-47.51,0,*60
1512904024.91,16274,2.88,71734.3,-11.15,-47.09,-47.31,0,*69
1512904026.15,16275,2.81,71728.3,-11.15,-46.83,-47.03,0,*6A
1512904027.42,16276,2.81,71736.3,-11.17,-46.89,-47.09,0,*6B
1512904028.69,16277,2.88,71740.5,-11.17,-46.97,-47.37,0,*68
1512904029.93,16278,2.81,71746.5,-11.19,-47.45,-47.65,0,*60
1512904031.2,16279,2.81,71752.3,-11.17,-46.15,-46.35,0,*6F
1512904032.43,16280,2.88,71748.8,-11.19,-45.33,-45.47,0,*66
1512904033.67,16281,2.81,71736.5,-11.19,-45.73,-45.87,0,*6F
1512904034.9,16282,2.81,71736.3,-11.19,-45.73,-45.87,0,*6C
1512904036.16,16283,2.88,71734.3,-11.17,-45.47,-45.67,0,*6A
1512904037.43,16284,2.81,71734.8,-11.17,-45.87,-46.15,0,*67
1512904038.67,16285,2.81,71730.8,-11.15,-45.95,-46.27,0,*66
1512904039.96,16286,2.88,71724.8,-11.17,-45.47,-45.81,0,*67
1512904041.2,16287,2.81,71726.3,-11.17,-45.67,-45.87,0,*62
1512904042.47,16288,2.88,71730.3,-11.17,-45.81,-46.01,0,*68
1512904043.73,16289,2.81,71730.8,-11.17,-45.67,-45.81,0,*6A
1512904044.99,16290,2.81,71736.3,-11.15,-45.81,-46.07,0,*65
1512904046.26,16291,2.81,71736.8,-11.17,-46.27,-46.55,0,*6E
1512904047.56,16292,2.81,71742.0,-11.17,-46.15,-46.49,0,*61
1512904048.81,16293,2.88,71746.0,-11.15,-45.61,-46.15,0,*6B
1512904050.03,16294,2.88,71746.3,-11.15,-45.21,-45.33,0,*6F
1512904051.29,16295,2.88,71746.0,-11.15,-44.47,-44.73,0,*6A
1512904052.52,16296,2.81,71740.0,-11.15,-44.33,-44.61,0,*69
1512904053.74,16297,2.81,71740.8,-11.15,-44.61,-44.99,0,*68
1512904055.0,16298,2.81,71744.0,-11.13,-45.53,-45.73,0,*64
1512904056.27,16299,2.81,71738.5,-11.13,-44.73,-44.99,0,*63
1512904057.51,16300,2.88,71744.8,-11.11,-44.73,-45.13,0,*63
1512904058.77,16301,2.88,71744.3,-11.11,-44.67,-44.93,0,*6E
1512904060.04,16302,2.88,71750.0,-11.11,-44.67,-45.07,0,*61
1512904061.27,16303,2.81,71746.3,-11.13,-45.33,-45.61,0,*62
1512904062.49,16304,2.81,71742.5,-11.11,-45.13,-45.53,0,*64
1512904063.72,16305,2.81,71742.8,-11.11,-46.21,-46.61,0,*65
1512904064.96,16306,2.88,71736.8,-11.11,-46.41,-46.75,0,*65
1512904066.24,16307,2.81,71746.8,-11.13,-46.41,-46.69,0,*6B
1512904067.51,16308,2.88,71738.8,-11.13,-46.41,-46.83,0,*60
1512904068.75,16309,2.88,71756.0,-11.11,-46.35,-46.61,0,*6C
1512904069.98,16310,2.88,71756.0,-11.13,-45.33,-45.61,0,*60
1512904071.23,16311,2.81,71758.8,-11.11,-45.27,-45.53,0,*67
1512904072.5,16312,2.81,71760.8,-11.11,-45.47,-45.73,0,*60
1512904073.7,16313,2.88,71758.0,-11.11,-45.33,-45.87,0,*69
1512904074.95,16314,2.81,71750.5,-11.11,-45.27,-45.53,0,*62
1512904076.19,16315,2.81,71754.0,-11.11,-44.93,-45.13,0,*69
1512904077.41,16316,2.88,71756.5,-11.11,-44.53,-44.87,0,*6A
1512904078.67,16317,2.88,71758.5,-11.09,-44.87,-45.07,0,*62
1512904079.96,16318,2.81,71752.0,-11.09,-44.73,-45.07,0,*66
1512904081.2,16319,2.88,71758.3,-11.09,-44.87,-45.13,0,*69
1512904082.42,16320,2.88,71762.0,-11.05,-44.99,-45.41,0,*67
1512904083.71,16321,2.81,71754.3,-11.09,-45.47,-46.15,0,*6A
1512904084.93,16322,2.88,71756.0,-11.09,-45.33,-45.67,0,*6C
1512904086.22,16323,2.88,71758.3,-11.09,-44.93,-45.27,0,*62
1512904087.49,16324,2.88,71754.8,-11.09,-44.93,-45.33,0,*60
1512904088.73,16325,2.88,71730.3,-11.05,-45.07,-45.41,0,*64
1512904089.96,16326,2.81,71734.0,-11.05,-44.41,-44.67,0,*61
1512904091.23,16327,2.81,71740.3,-11.03,-44.47,-44.87,0,*6E
1512904092.5,16328,2.88,71744.0,-11.03,-45.47,-45.95,0,*62
1512904093.76,16329,2.81,71718.0,-11.01,-45.73,-46.41,0,*6C
1512904094.99,16330,2.81,71726.0,-11.01,-45.33,-45.73,0,*62
1512904096.21,16331,2.88,71738.8,-11.01,-44.99,-45.21,0,*65
1512904097.47,16332,2.88,71736.3,-11.03,-45.47,-45.67,0,*64
1512904098.72,16333,2.88,71744.5,-10.99,-45.53,-46.21,0,*63
1512904099.93,16334,2.88,71748.5,-11.01,-45.33,-45.87,0,*6D